EHI
0 0 0 0 0 0 1 2 2 2 1 0 0 0 0 0 0 0 0 0 0 0 0 0 0 0 0 0 0 0 0 0 0 0 0 0 0 0 0 0 0 0 0
0 0 0 0 0 0 1 1 1 1 0 0 0 0 0 0 0 0 0 0 0 0 0 0 0 0 0 0 0 0 0 0 0 0 0 0 0 0 0 0 0 0 0
0 0 0 0 0 0 0 0 0 0 0 0 0 0 0 0 0 0 0 0 0 0 0 0 0 0 0 0 0 0 0 0 0 0 0 0 0 0 0 0 0 0 0
0 0 0 0 0 0 0 0 0 0 0 0 0 0 0 0 0 0 0 0 0 0 0 0 0 0 0 0 0 0 0 0 0 0 0 0 0 0 0 0 0 0 0
0 0 0 0 0 0 0 0 0 0 0 0 0 0 0 0 0 0 0 0 0 0 0 0 0 0 0 0 0 0 0 0 0 0 0 0 0 0 0 0 0 0 0
0 0 0 0 0 0 0 0 0 0 0 0 0 0 0 0 0 0 0 0 0 0 0 0 0 0 0 0 0 0 0 0 0 0 0 0 0 0 0 0 0 0 0
0 0 0 0 0 0 0 0 0 0 0 0 0 0 0 0 0 0 0 0 0 0 0 0 0 0 0 0 0 0 0 0 0 0 0 0 0 0 0 0 0 0 0
0 0 0 0 0 0 0 0 0 0 0 0 0 0 0 0 0 0 0 0 0 0 0 0 0 0 0 0 0 0 0 0 0 0 0 0 0 0 0 0 0 0 0
0 0 0 0 0 0 0 0 0 0 0 0 0 0 0 0 0 0 0 0 0 0 0 0 0 0 0 0 0 0 0 0 0 0 0 0 0 0 0 0 0 0 0
0 0 0 0 0 0 0 0 0 0 0 0 0 0 0 0 0 0 0 0 0 0 0 0 0 0 0 0 0 0 0 0 0 0 0 0 0 0 0 0 0 0 0
0 0 0 0 0 0 0 0 0 0 0 0 0 0 0 0 0 0 0 0 0 0 0 0 0 0 0 0 0 0 0 0 0 0 0 0 0 0 0 0 0 0 0
0 0 0 0 0 0 0 0 0 0 0 0 0 0 0 0 0 0 0 0 0 0 0 0 0 0 0 0 0 0 0 0 0 0 0 0 0 0 0 0 0 0 0
0 0 0 0 0 0 0 0 0 0 0 0 0 0 0 0 0 0 0 0 0 0 0 0 0 0 0 0 0 0 0 0 0 0 0 0 0 0 0 0 0 0 0
0 0 0 0 0 0 0 0 0 0 0 0 0 0 0 0 0 0 0 0 0 0 0 0 0 0 0 0 0 0 0 0 0 0 0 0 0 0 0 0 0 0 0
0 0 0 0 0 0 0 0 0 0 0 0 0 0 0 0 0 0 0 0 0 0 0 0 0 0 0 0 0 0 0 0 0 0 0 0 0 0 0 0 0 0 0
0 0 0 0 0 0 0 0 0 0 0 0 0 0 0 0 0 0 0 0 0 0 0 0 0 0 0 0 0 0 0 0 0 0 0 0 0 0 0 0 0 0 0
0 0 0 0 0 0 0 0 0 0 0 0 0 0 0 0 0 0 0 0 0 0 0 0 0 0 0 0 0 0 0 0 0 0 0 0 0 0 0 0 0 0 0
0 0 0 0 0 0 0 0 0 0 0 0 0 0 0 0 0 0 0 0 0 0 0 0 0 0 0 0 0 0 0 0 0 0 0 0 0 0 0 0 0 0 0
0 0 0 0 0 0 0 0 0 0 0 0 0 0 0 0 0 0 0 0 0 0 0 0 0 0 0 0 0 0 0 0 0 0 0 0 0 0 0 0 0 0 0
0 0 0 0 0 0 0 0 0 0 0 0 0 0 0 0 0 0 0 0 0 0 0 0 0 0 0 0 0 0 0 0 0 0 0 0 0 0 0 0 0 0 0
0 0 0 0 0 0 0 0 0 0 0 0 0 0 0 0 0 0 0 0 0 0 0 0 0 0 0 0 0 0 0 0 0 0 0 0 0 0 0 0 0 0 0
0 0 0 0 0 0 0 0 0 0 0 0 0 0 0 0 0 0 0 0 0 0 0 0 0 0 0 0 0 0 0 0 0 0 0 0 0 0 0 0 0 0 0
0 0 0 0 0 0 0 0 0 0 0 0 0 0 0 0 0 0 0 0 0 0 0 0 0 0 0 0 0 0 0 0 0 0 0 0 0 0 0 0 0 0 0
0 0 0 0 0 0 0 0 0 0 0 0 0 0 0 0 0 0 0 0 0 0 0 0 0 0 0 0 0 0 0 0 0 0 0 0 0 0 0 0 0 0 0
0 0 0 0 0 0 0 0 0 0 0 0 0 0 0 0 0 0 0 0 0 0 0 0 0 0 0 0 0 0 0 0 0 0 0 0 0 0 0 0 0 0 0
0 0 0 0 0 0 0 0 0 0 0 0 0 0 0 0 0 0 0 0 0 0 0 0 0 0 0 0 0 0 0 0 0 0 0 0 0 0 0 0 0 0 0
Wind_Speed
11 11 11 10 10 10 9 9 9 9 9 9 9 9 9 8 8 8 9 8 8 8 7 8 8 7 5 4 4 4 4 4 2 3 2 3 3 4 4 5 4 5 1
11 11 11 10 10 10 10 9 9 9 9 9 8 8 8 8 7 7 8 8 8 8 7 7 7 5 5 5 4 5 5 4 3 3 2 2 2 3 4 5 4 4 4
11 11 11 10 10 10 10 9 8 9 8 8 8 8 8 7 7 7 7 7 7 7 7 7 7 6 6 5 4 5 4 3 3 2 2 2 2 3 5 4 4 3 5
11 11 11 10 10 10 9 9 8 8 8 8 8 8 7 7 7 7 7 7 7 7 6 6 6 6 6 5 4 4 4 3 1 2 2 2 2 3 3 4 4 4 4
10 11 10 10 9 9 9 8 7 7 8 8 8 8 8 7 7 6 5 6 6 6 5 5 7 7 7 6 5 5 4 4 3 3 2 3 4 4 5 5 5 5 3
9 10 9 9 9 9 8 8 8 8 8 8 8 8 8 8 8 8 6 5 5 5 5 5 5 4 3 2 1 3 5 6 6 6 4 5 5 5 5 5 5 5 4
9 8 8 8 8 8 8 8 8 8 7 7 7 8 9 9 7 7 7 3 4 5 4 3 3 5 2 3 2 6 5 5 5 6 7 7 6 6 7 7 6 7 6
8 8 8 8 8 8 8 7 7 6 6 6 6 7 8 9 7 6 7 1 4 4 4 4 3 4 7 7 6 4 3 1 1 4 5 6 7 7 7 7 7 7 6
8 8 7 7 7 7 7 6 5 5 5 5 6 6 7 7 6 6 9 1 3 3 3 4 5 5 7 7 6 5 4 2 3 5 6 7 8 8 7 7 6 6 5
7 7 7 6 6 6 6 5 4 4 5 5 5 5 5 6 6 6 10 2 3 2 3 4 7 6 6 7 6 6 6 6 6 3 4 6 7 6 9 7 7 6 6
6 6 7 6 6 6 5 4 4 4 4 4 5 4 5 5 6 6 9 5 4 4 3 3 6 6 5 5 6 5 6 8 7 6 4 3 2 1 1 2 4 5 6
6 7 6 6 5 5 5 4 4 3 4 4 3 3 4 5 5 5 5 5 7 4 4 5 6 5 4 4 4 5 7 9 6 4 4 4 4 4 4 5 4 4 4
6 6 6 6 5 5 4 4 3 2 2 2 3 3 4 4 5 3 1 1 3 3 4 5 3 4 5 3 1 4 7 5 5 5 5 5 5 4 5 3 3 3 4
5 5 4 5 5 5 3 3 3 3 3 3 3 3 3 4 4 3 2 1 3 2 0 3 6 6 4 2 1 2 3 5 5 5 5 5 4 4 4 4 4 4 4
5 4 4 5 5 4 5 5 5 7 7 5 5 4 4 5 7 7 7 6 7 6 6 3 2 2 2 3 3 3 3 4 4 5 5 5 5 5 5 4 4 5 5
4 3 3 4 4 3 4 6 6 5 4 4 6 6 5 6 4 4 4 4 5 7 7 3 3 4 4 4 4 4 4 5 5 5 5 5 5 5 5 5 5 6 5
3 3 2 3 3 3 3 3 5 5 3 2 2 3 4 4 3 3 2 3 5 6 4 3 4 4 4 4 5 5 5 5 5 5 5 5 5 6 6 5 5 6 6
3 4 1 2 2 2 2 2 2 3 4 5 5 3 2 1 1 2 4 6 3 2 3 4 4 4 4 5 5 5 5 5 5 5 5 5 6 6 6 6 5 7 7
1 2 2 2 1 1 1 1 2 3 2 3 4 6 5 5 5 4 5 3 3 3 4 4 4 4 5 5 5 4 5 5 5 5 5 5 5 6 6 7 6 5 6
2 3 1 1 1 1 1 1 2 2 1 2 2 2 2 2 2 2 0 2 3 3 4 4 4 4 4 5 5 5 5 4 5 4 5 5 5 6 6 7 7 7 6
2 5 4 3 1 1 1 2 1 1 1 2 2 5 5 3 1 2 2 2 3 4 4 4 4 4 4 4 5 6 6 5 5 5 5 5 6 6 6 6 6 6 7
1 2 2 1 2 2 1 1 1 1 1 1 2 5 3 3 1 2 2 2 2 2 3 4 4 4 4 5 5 5 5 5 5 6 6 6 6 6 6 6 6 7 7
1 1 2 2 2 3 3 2 1 1 1 1 1 1 1 1 2 1 2 2 2 2 2 2 3 4 5 4 4 5 5 6 6 7 7 7 7 6 6 6 7 7 7
2 2 2 2 2 2 2 1 1 1 1 1 0 0 1 1 1 2 2 1 1 1 2 2 3 4 5 5 4 4 6 7 8 7 9 8 8 7 6 6 6 8 7
2 2 2 2 2 1 1 1 1 1 1 1 1 1 0 0 1 0 0 1 1 1 1 2 2 3 4 5 6 6 6 6 6 8 9 8 7 6 6 6 6 6 6
2 2 2 1 1 1 2 2 2 2 2 1 1 1 1 1 1 1 1 1 1 0 1 1 2 3 4 4 5 6 5 6 6 8 9 8 6 5 7 6 6 5 6
Wind_Direction
74 76 78 80 84 86 85 83 84 85 85 84 83 83 82 80 79 80 85 87 82 79 75 74 67 52 53 57 55 52 44 35 57 73 68 69 14 346 355 335 325 314 51
80 80 78 79 81 82 83 83 83 81 80 81 82 83 83 82 80 82 84 83 83 80 76 74 71 68 60 47 45 51 51 34 28 39 28 41 14 348 343 314 326 334 319
84 84 81 78 79 80 82 81 80 80 81 83 86 86 86 86 85 82 82 81 79 77 74 72 67 62 55 52 40 47 46 46 27 6 18 17 343 3 325 317 329 325 311
87 86 84 81 80 81 81 80 80 83 86 87 89 88 87 87 85 83 85 84 83 79 73 66 60 53 47 44 49 41 25 11 20 344 2 5 354 359 318 338 341 341 331
92 91 89 89 87 87 86 83 83 85 87 88 90 87 84 78 63 58 81 87 86 84 80 72 66 56 39 15 12 15 4 351 352 354 356 5 13 357 354 346 339 333 336
96 95 95 93 91 90 91 90 88 84 82 82 83 85 79 69 43 22 11 75 78 78 77 77 101 104 97 151 37 348 341 340 349 339 351 2 2 357 353 332 338 338 339
104 104 102 98 94 93 95 93 90 89 87 83 83 83 81 69 44 27 5 17 71 66 62 53 53 66 354 26 173 212 223 229 265 313 334 345 343 356 338 333 344 335 330
105 102 100 98 94 93 92 92 92 93 93 89 84 83 83 71 46 24 340 353 74 69 57 44 34 41 37 354 339 347 349 74 236 281 324 324 333 334 321 306 300 294 286
101 99 98 96 95 94 92 95 99 101 100 100 93 89 87 83 49 12 331 85 87 79 61 46 14 32 46 342 319 342 359 21 186 229 267 281 291 285 287 296 311 318 336
98 96 95 92 87 83 84 90 97 102 102 101 96 88 83 79 62 16 337 357 61 67 87 102 78 29 10 339 329 350 1 360 343 323 251 239 247 232 225 264 314 330 340
96 94 92 89 86 83 82 81 93 102 99 96 100 97 88 75 90 42 1 352 14 18 45 61 68 37 8 343 321 352 353 318 310 316 323 331 326 328 286 305 333 322 332
99 96 92 88 83 89 87 81 82 98 120 119 111 108 105 99 65 65 27 13 342 355 25 38 57 19 351 345 354 1 314 294 306 333 345 0 359 1 0 344 337 319 305
105 97 94 90 85 83 86 91 100 100 93 98 107 105 101 100 115 139 143 5 331 345 34 42 0 316 286 228 99 306 299 319 345 347 355 360 356 352 325 320 316 303 282
107 103 106 107 105 95 78 73 66 55 58 68 71 82 88 89 66 55 56 143 195 223 346 172 211 242 267 326 280 287 343 9 346 342 346 344 341 339 341 351 342 333 327
107 104 104 103 98 97 80 52 42 55 34 17 40 53 56 67 47 13 350 4 2 10 333 318 347 14 5 14 12 16 1 358 351 353 342 340 346 349 353 357 343 332 336
121 111 102 108 108 107 114 115 70 59 81 58 32 14 58 59 32 9 2 351 334 322 310 349 15 14 10 7 2 1 4 5 355 344 341 344 347 345 344 344 344 345 344
111 99 99 99 109 112 113 117 129 134 140 124 88 43 24 22 3 340 318 298 291 294 302 15 19 16 10 6 2 358 356 359 343 337 345 344 341 338 339 343 349 349 346
117 112 115 109 100 102 105 109 115 127 141 145 151 149 155 189 281 294 287 275 248 259 6 20 17 11 7 3 359 355 347 347 348 344 346 342 339 336 337 339 347 354 339
105 102 100 78 111 118 119 107 98 100 102 113 131 147 179 193 202 236 266 301 10 18 17 18 13 6 3 356 352 349 343 342 347 336 341 341 337 333 338 339 342 345 322
113 74 332 257 166 146 145 139 112 105 98 92 98 99 145 204 212 170 194 15 5 17 11 10 10 2 354 349 346 345 343 343 342 336 346 341 336 333 336 335 337 337 339
134 134 190 230 143 123 132 132 120 114 108 107 89 69 358 321 10 31 25 26 16 14 12 358 351 354 358 349 351 351 345 343 348 347 342 339 334 332 329 328 334 338 343
160 146 158 99 103 110 120 145 137 120 114 116 126 138 192 267 358 15 24 29 26 15 12 352 345 2 5 354 353 341 341 346 351 347 338 332 328 328 331 333 341 341 344
207 165 145 126 125 133 205 188 163 142 115 107 97 92 154 10 14 19 23 21 12 9 5 354 344 1 10 358 345 337 344 350 344 334 324 322 324 327 329 335 336 340 353
181 191 172 147 165 177 171 162 165 148 116 123 141 31 43 42 7 18 353 8 5 5 1 357 359 8 3 350 336 349 18 357 332 317 318 315 315 323 329 333 336 348 350
184 193 192 171 173 171 166 180 172 170 174 175 204 237 263 333 343 347 327 357 332 352 359 347 351 0 359 354 357 9 17 340 317 315 307 301 312 324 326 332 341 348 354
183 194 208 188 175 191 198 197 190 199 203 204 215 230 273 289 302 322 306 300 289 275 311 334 1 354 346 348 19 10 345 326 316 303 297 300 316 341 339 333 342 348 2